Weather History for COCHIN INTL, India

Change the Weather History Date:

Wednesday, January 29, 2014

  Actual Average Record
Temperature  
Mean Temperature 80 °F -  
Max Temperature 93 °F - - ()
Min Temperature 66 °F - - ()
Cooling Degree Days 14    
Growing Degree Days 30 (Base 50)    
Moisture  
Dew Point 64 °F    
Average Humidity 64    
Maximum Humidity 94    
Minimum Humidity 32    
Precipitation  
Precipitation 0.00 in - - ()
Sea Level Pressure  
Sea Level Pressure 29.87 in    
Wind  
Wind Speed 4 mph ()    
Max Wind Speed 9 mph    
Max Gust Speed -    
Visibility 3.0 miles    
Events      
T = Trace of Precipitation, MM = Missing Value Source: Averaged Metar Reports

Daily Weather History Graph

Daily Weather History Graph

Search for Another Location

Airport:

Trip Planner

Search our weather history database for the weather conditions in past years. The results will help you decide how hot, cold, wet, or windy it might be!

Date:

Astronomy

Jan. 29, 2014 Rise Set
Actual Time 6:47 AM IST 6:27 PM IST
Civil Twilight 6:25 AM IST 6:49 PM IST
Nautical Twilight 5:59 AM IST 7:15 PM IST
Astronomical Twilight 5:34 AM IST 7:40 PM IST
Moon 4:54 AM IST (1/29) 4:56 PM IST (1/29)
Length of Visible Light 12h 24m
Length of Day
11h 40m
Waning Crescent, 4% of the Moon is Illuminated
Jan 29
Waning Crescent
Jan 31
New
Feb 7
First Quarter
Feb 15
Full
Feb 22
Last Quarter

Hourly Weather History & Observations

Time (IST) Temp. Heat Index Dew Point Humidity Pressure Visibility Wind Dir Wind Speed Gust Speed Precip Events Conditions
2:30 AM 69.8 °F - 66.2 °F 88% 29.89 in 3.1 mi ESE 2.3 mph - N/A   Haze
3:30 AM 66.2 °F - 64.4 °F 94% 29.86 in 3.1 mi East 3.5 mph - N/A   Haze
4:30 AM 66.2 °F - 62.6 °F 88% 29.86 in 3.1 mi East 4.6 mph - N/A   Haze
5:30 AM 66.2 °F - 60.8 °F 83% 29.89 in 3.1 mi East 4.6 mph - N/A   Haze
6:30 AM 66.2 °F - 60.8 °F 83% 29.89 in 2.5 mi East 5.8 mph - N/A   Haze
7:30 AM 68.0 °F - 60.8 °F 78% 29.92 in 2.5 mi ESE 5.8 mph - N/A   Haze
8:30 AM 71.6 °F - 62.6 °F 73% 29.92 in 2.5 mi East 3.5 mph - N/A   Haze
10:30 AM 82.4 °F 83.4 °F 62.6 °F 51% 29.92 in 3.1 mi ENE 3.5 mph - N/A   Haze
11:30 AM 86.0 °F 86.1 °F 60.8 °F 43% 29.89 in 3.1 mi East 4.6 mph - N/A   Haze
12:30 PM 89.6 °F 89.5 °F 60.8 °F 38% 29.86 in 3.1 mi NNE 5.8 mph - N/A   Haze
1:30 PM 91.4 °F 92.1 °F 62.6 °F 38% 29.80 in 3.1 mi North 6.9 mph - N/A   Haze
2:30 PM 93.2 °F 92.6 °F 59.0 °F 32% 29.80 in 3.1 mi NW 6.9 mph - N/A   Haze
3:30 PM 93.2 °F 96.2 °F 66.2 °F 41% 29.77 in 3.1 mi WNW 6.9 mph - N/A   Haze
4:30 PM 89.6 °F 92.2 °F 66.2 °F 46% 29.77 in 3.1 mi West 9.2 mph - N/A   Haze
5:30 PM 89.6 °F 93.4 °F 68.0 °F 49% 29.80 in 3.1 mi West 9.2 mph - N/A   Haze
6:30 PM 86.0 °F 89.4 °F 68.0 °F 55% 29.83 in 3.1 mi West 5.8 mph - N/A   Haze
7:30 PM 82.4 °F 85.4 °F 68.0 °F 62% 29.86 in 3.1 mi SW 4.6 mph - N/A   Haze
8:30 PM 78.8 °F - 69.8 °F 74% 29.89 in 3.1 mi WNW 3.5 mph - N/A   Haze
9:30 PM 77.0 °F - 68.0 °F 74% 29.92 in 3.1 mi Calm Calm - N/A   Haze
10:30 PM 75.2 °F - 68.0 °F 78% 29.95 in 3.1 mi Calm Calm - N/A   Haze
11:30 PM 73.4 °F - 68.0 °F 83% 29.92 in - Calm Calm - N/A   Clear